Regional Weather Roundup
Issued by NWS

Home | Current Version | Previous Version | Text Only | Print | Product List | Glossary Off
Versions: 1 2 3 4 5 6 7 8 9 10 11 12 13 14 15 16 17 18 19 20 21 22 23 24 25 26 27 28 29 30 31 32 33 34 35 36 37 38 39 40 41 42 43 44 45 46 47

000
ASUS43 KDMX 240207
RWRIA

WEATHER ROUNDUP FOR IOWA
NATIONAL WEATHER SERVICE DES MOINES IA
900 PM CDT WED JUL 23 2014

NOTE: "FAIR" INDICATES FEW OR NO CLOUDS BELOW 12,000 FEET WITH NO
SIGNIFICANT WEATHER AND/OR OBSTRUCTIONS TO VISIBILITY.

* - THESE STATIONS ARE NOT NWS STATIONS...THUS NOT UNDER NWS
QUALITY CONTROL.  THEY ALSO DO NOT REPORT WEATHER SUCH
AS PRECIPITATION OR FOG.

IAZ001>003-012>014-020>022-031>034-043>046-240300-
   NORTHWEST IOWA

CITY           SKY/WX    TMP DP  RH WIND       PRES   REMARKS
CARROLL *      CLEAR     68  63  83 E3        30.16R
CHEROKEE *     CLEAR     72  63  73 CALM      30.16S
DENISON *      CLEAR     72  64  78 E5        30.14S
LE MARS *      CLEAR     75  61  60 CALM      30.16S
ORANGE CITY *  CLEAR     75  61  60 E3        30.17S
SHELDON *      CLEAR     68  63  83 NE5       30.17R
SIOUX CITY     CLEAR     76  59  55 E5        30.15S
SPENCER        CLEAR     69  59  70 NE7       30.17F
STORM LAKE *   CLEAR     68  64  88 E6        30.17S
$$

IAZ055>058-069>071-079>083-090>094-240300-
   SOUTHWEST IOWA

CITY           SKY/WX    TMP DP  RH WIND       PRES   REMARKS
ATLANTIC *     CLEAR     75  63  64 NE3       30.14S
AUDUBON *      CLEAR     72  66  83 CALM      30.17S
CLARINDA *     CLEAR     72  64  78 NE3       30.16R
COUNCIL BLFS *   N/A     73  64  73 NE6       30.14S
CRESTON *      CLEAR     70  63  78 E7        30.16R
HARLAN  *      CLEAR     72  66  83 CALM      30.19R
LAMONI         CLEAR     71  59  65 NE6       30.15R
RED OAK *      CLEAR     75  64  69 E7        30.14S
SHENANDOAH *   CLEAR     73  66  78 E3        30.15R
$$

IAZ047>049-059>061-072>074-084-240300-
   CENTRAL IOWA

CITY           SKY/WX    TMP DP  RH WIND       PRES   REMARKS
AMES           CLEAR     70  60  70 E3        30.15S
ANKENY *       CLEAR     70  61  73 CALM      30.15S
CHARITON *     CLEAR     70  61  73 E6        30.16S
DES MOINES     CLEAR     76  57  51 E6        30.14S
GRINNELL*      CLEAR     68  61  77 CALM      30.17R
KNOXVILLE *    CLEAR     73  59  60 E5        30.14S
MARSHALLTOWN   CLEAR     71  62  73 NE3       30.15S
PELLA *        CLEAR     72  59  64 CALM      30.16S
PERRY *          N/A     68  63  83 E3        30.16S
$$

IAZ004>006-015-016-023>025-035-036-240300-
   NORTH CENTRAL IOWA

CITY           SKY/WX    TMP DP  RH WIND       PRES   REMARKS
ALGONA *       CLEAR     70  59  68 NE7       30.17F
CLARION *      CLEAR     68  63  83 NE6       30.16S
ESTHERVILLE    CLEAR     69  56  62 N6        30.17F
FORT DODGE *   CLEAR     70  61  73 E3        30.16F
MASON CITY     CLEAR     67  61  81 N6        30.18S
FOREST CITY *  CLEAR     68  57  68 CALM      30.17S
IOWA FALLS *     N/A     72  59  64 E3        30.18R
$$

IAZ007>011-017>019-026>030-037>042-050>054-066-240300-
   NORTHEAST IOWA

CITY           SKY/WX    TMP DP  RH WIND       PRES   REMARKS
CEDAR RAPIDS   CLEAR     71  54  54 NE5       30.14S
CHARLES CITY * CLEAR     68  59  73 N5        30.17S
CLINTON *      CLEAR     66  59  77 N3        30.16S
DECORAH *      CLEAR     70  59  68 CALM      30.16R
DUBUQUE        CLEAR     67  57  70 N5        30.15S
MONTICELLO *   CLEAR     68  61  77 CALM      30.14S
OELWEIN *      CLEAR     70  61  73 NE3       30.16S
WATERLOO       CLEAR     71  60  68 CALM      30.14S
$$

IAZ064-065-067-068-078-240300-
   EAST CENTRAL IOWA

CITY           SKY/WX    TMP DP  RH WIND       PRES   REMARKS
DAVENPORT      CLEAR     63  59  87 N3        30.14R
IOWA CITY      CLEAR     73  58  59 N5        30.15S
MT. PLEASANT * CLEAR     68  59  73 CALM      30.15R
MUSCATINE *    CLEAR     70  61  73 NW5       30.13F
QUAD CITIES    CLEAR     74  55  51 CALM      30.13R
$$

IAZ062-063-075>077-085>089-095>099-240300-
   SOUTHEAST IOWA

CITY           SKY/WX    TMP DP  RH WIND       PRES   REMARKS
BURLINGTON     CLEAR     69  59  70 N3        30.14R
FAIRFIELD *    CLEAR     68  61  77 NE5       30.15S
FORT MADISON * CLEAR     66  64  94 CALM      30.15S
KEOKUK *       CLEAR     70  59  68 VRB5      30.13S
OSKALOOSA *      N/A     70  61  73 NE3       30.16R
CENTERVILLE *  CLEAR     68  63  83 NE3       30.17S
OTTUMWA        CLEAR     72  58  61 NE5       30.15S
WASHINGTON *   CLEAR     70  63  78 CALM      30.15S
$$

ABBREVIATIONS USED IN REMARKS
   TC - TEMPERATURES IN CELSIUS
  WCI - WIND CHILL INDEX
   HX - HEAT INDEX
  VSB - VISIBILITY
$$



USA.gov is the U.S. government's official web portal to all federal, state and local government web resources and services.